Voltar ao catálogo

DELTA 1 DEB

AtivoUNKNOWN
NORAD 10751·DEBRIS·🇺🇸 United States

Lançado Jul 29, 1976 de Vandenberg Space Force Base

Loading…

Próximas Passagens (próximas 24 horas)

TLE

AtualizadoSource: Space-Track

Época: Sep 14, 2026, 08:53 UTC

1 10751U 76077AY  26257.37052043  .00001061  00000-0  15277-1 0  9998
2 10751 102.0911 222.5027 0580181 233.9175 289.2209 11.56025976107139

Acompanhe DELTA 1 DEB em tempo real com AllMySat

Download on the App Store